Location: Eschertshofen
(49.3064°N, 11.5756°E)
Time: 14:01:38
(UTC+00:00)

Lacrosse 5 rocket - Pass Details

Date: 18 September 2020
Orbit: 460 x 636 km, 57.0° (Epoch: 27 October)

Event Time Altitude Azimuth Distance (km) Brightness Sun altitude
Rises 19:47:14 0° 285° (WNW) 2,794 6.1 -23.5°
Reaches altitude 10° 19:49:40 10° 296° (WNW) 1,925 5.2 -23.9°
Maximum altitude 19:53:35 30° 358° (N) 1,098 3.1 -24.4°
Enters shadow 19:55:07 24° 34° (NNE) 1,275 3.1 -24.6°
